#timestamp,LO_Frequency,Hit,StdDev 
1557982815.5,286046998.0,N
1557982835.4,286046995.6,N
1557982855.2,286046995.6,N
1557982875.0,286046996.2,N
1557982875.9,286046996.2,N
1557982895.8,286046995.6,N
1557982915.6,286046997.0,N
1557982935.4,286047002.4,N
1557982955.3,286047002.4,N
1557982975.1,286047001.4,N
1557982995.9,286047000.6,N
1557983015.7,286047000.5,N
1557983035.5,286046998.6,N
1557983055.4,286046996.7,N
1557983075.2,286046995.2,N
1557983095.1,286046994.9,N
1557983096.0,286046994.9,N
1557983115.8,286046999.0,N
1557983135.6,286046997.3,N
1557983155.5,286046995.7,N
1557983175.3,286046997.3,N
1557983195.1,286046995.3,N
1557983215.9,286046997.8,N
1557983235.7,286046998.0,N
1557983255.5,286046997.0,N
1557983275.4,286046999.2,N
1557983295.2,286046999.0,N
1557983315.0,286047001.0,N
1557983316.0,286047001.0,N
1557983335.8,286047000.6,N
1557983355.6,286046998.5,N
1557983375.5,286046998.9,N
1557983395.3,286046999.0,N
1557983415.1,286046998.0,N
1557983435.9,286046995.5,N
1557983455.7,286046994.9,N
1557983475.6,286046997.1,N
1557983495.4,286046998.8,N
1557983515.2,286047000.8,N
1557983535.1,286046998.4,N
1557983536.0,286046998.4,N
1557983555.8,286046998.3,N
1557983575.6,286046999.1,N
1557983595.5,286046996.9,N
1557983615.3,286046999.0,N
1557983635.1,286046998.7,N
1557983655.9,286047001.1,N
1557983675.7,286047002.6,N
1557983695.6,286047000.8,N
1557983715.4,286046998.6,N
1557983735.2,286046998.4,N
1557983755.1,286046997.0,N
1557983756.0,286046997.0,N
1557983775.8,286046997.1,N
1557983795.7,286046999.5,N
1557983815.5,286046997.7,N
1557983835.3,286046997.6,N
1557983855.2,286046995.8,N
1557983875.0,286046996.1,N
1557983875.9,286046996.1,N
1557983895.7,286046995.0,N
1557983915.6,286046995.2,N
1557983935.4,286046997.9,N
1557983955.3,286046996.2,N
1557983975.1,286046995.0,N
1557983995.8,286046995.3,N
1557984015.7,286046997.6,N
1557984035.5,286046997.4,N
1557984055.4,286046997.2,N
1557984075.2,286046995.4,N
1557984095.0,286046995.8,N
1557984095.9,286046995.8,N
1557984115.8,286046997.9,N
1557984135.6,286046997.9,N
1557984155.4,286046997.5,N
1557984175.3,286046997.7,N
1557984195.1,286046995.0,N
1557984215.9,286046996.0,N
1557984235.7,286046993.9,Y
1557984255.5,286046997.1,P
1557984275.4,286046997.2,P
1557984295.2,286046997.3,P
1557984315.1,286046996.9,Y
1557984316.0,286046996.9,P
1557984335.8,286047000.9,P
1557984355.6,286047001.1,N
1557984375.5,286047000.8,N
1557984395.3,286046998.1,N
1557984415.2,286046998.1,N
1557984435.9,286047001.0,N
1557984455.7,286046998.2,N
1557984475.6,286046998.2,N
1557984495.4,286047000.6,N
1557984515.2,286047000.0,N
1557984535.1,286047000.4,N
1557984536.0,286047000.4,N
1557984555.8,286047000.2,N
1557984575.7,286047000.4,N
1557984595.5,286047000.6,N
1557984615.3,286047000.1,N
1557984635.2,286047001.1,N
1557984655.0,286047000.9,N
1557984655.9,286047000.9,N
1557984675.7,286047000.3,N
1557984695.6,286047000.4,N
1557984715.4,286047000.1,N
1557984735.3,286047002.3,N
1557984755.1,286047002.3,N
1557984756.0,286047002.3,N
1557984775.8,286047002.5,N
1557984795.7,286047002.0,N
1557984815.5,286047001.4,N
1557984835.3,286047002.4,N
1557984855.2,286047000.5,N
1557984875.0,286047000.7,N
1557984875.9,286047000.7,N
1557984895.8,286046999.9,N
1557984915.6,286047000.9,N
1557984935.4,286047000.5,N
1557984955.3,286047000.1,N
1557984975.1,286047002.4,N
1557984995.8,286047001.8,N
1557985015.7,286047000.1,N
1557985035.5,286046998.1,N
1557985055.4,286047000.5,N
1557985075.2,286046999.2,N
1557985095.0,286046998.0,N
1557985095.9,286046998.0,N
1557985115.8,286046996.8,N
1557985135.6,286046997.7,N
1557985155.5,286046997.2,N
1557985175.3,286046999.2,N
1557985195.1,286046999.4,N
1557985215.9,286046999.2,N
1557985235.7,286047000.7,N
1557985255.5,286046998.6,N
1557985275.4,286046999.4,N
1557985295.2,286047001.1,N
1557985315.1,286046999.7,N
1557985335.1,286047000.3,N
1557985355.3,286047000.7,N
1557985375.1,286047002.7,N
1557985376.0,286047002.7,N
1557985395.8,286047004.4,N
1557985415.7,286047001.4,N
1557985435.5,286047002.2,N
1557985455.3,286047002.1,N
1557985475.2,286047001.7,N
1557985495.0,286047002.0,N
1557985495.9,286047002.0,N
1557985515.8,286047004.0,N
1557985535.6,286047001.8,N
1557985555.4,286047001.9,N
1557985575.3,286047001.9,N
1557985595.1,286047002.3,N
1557985596.0,286047002.3,N
1557985615.8,286047001.5,N
1557985635.7,286047003.7,N
1557985655.5,286047001.3,N
1557985675.4,286047006.0,Y
1557985695.2,286047001.8,P
1557985715.0,286047002.4,P
1557985715.9,286047002.4,P
1557985735.8,286047000.0,N
1557985755.6,286047000.9,N
1557985775.4,286046998.2,N
1557985795.3,286046998.2,N
1557985815.1,286047000.0,N
1557985835.8,286047002.8,N
1557985855.7,286047002.8,N
1557985875.5,286047000.1,N
1557985895.4,286047002.3,N
1557985915.2,286047001.6,N
1557985935.0,286047002.8,N
1557985935.9,286047002.8,N
1557985955.8,286047000.1,N
1557985975.6,286047002.8,N
1557985995.4,286047002.6,N
1557986015.3,286047000.6,N
1557986035.1,286047001.2,N
1557986055.9,286046998.3,N
1557986075.7,286046999.8,N
1557986095.5,286047000.3,N
1557986115.4,286047000.4,N
1557986135.2,286047000.3,N
1557986155.0,286046998.5,N
1557986155.9,286046998.5,N
1557986175.8,286046998.6,N
1557986195.6,286046996.6,N
1557986215.5,286046997.5,N
1557986235.3,286046996.7,N
1557986255.1,286046999.0,N
1557986275.0,286046998.2,N
1557986275.9,286046998.2,N
1557986295.8,286047000.7,N
1557986315.6,286046998.3,N
1557986335.4,286046998.2,N
1557986355.3,286047000.9,N
1557986375.1,286046998.7,N
1557986376.0,286046998.7,N
1557986395.8,286046998.6,N
